Voltar ao catálogo

COSMOS 394

AtivoMilitarVLEO
NORAD 4922·PAYLOAD·🇷🇺 Russia

Lançado Feb 9, 1971 de Plesetsk Cosmodrome

Loading…

Próximas Passagens

TLE

Source: Space-Track
1  4922U 71010A   26221.86299512  .00002888  00000-0  57529-4 0  9999
2  4922  65.8188  98.8691 0009677 226.4964 133.5383 15.49089807 66333

Acompanhe COSMOS 394 em tempo real com AllMySat

Download on the App Store